Tracking 19909 objects as of 22-Oct-2019
HD Live streaming from Space Station
objects crossing your sky now

IRIDIUM 33 DEB

Track IRIDIUM 33 DEB now!
10-day predictions


NORAD ID: 34361
Int'l Code: 1997-051FD
Perigee: 580.6 km
Apogee: 595.6 km
Inclination: 86.4 °
Period: 96.3 minutes
Semi major axis: 6959 km
RCS: 0.038 m2 (small)
Launch date: September 14, 1997
Source: United States (US)
Launch site: TYURATAM MISSILE AND SPACE COMPLEX (TTMTR)

Note: This is SATELLITE DEBRIS
aabbcc
Your satellite tracking list
Your tracking list is empty




NASA's NSSDC Master Catalog

Two Line Element Set (TLE):
1 34361U 97051FD  19294.25995331  .00008744  00000-0  78738-3 0  9990
2 34361  86.3510 222.2221 0010774 236.9578 123.0618 14.95446812566196
Source of the keplerian elements: AFSPC